Starlink 33855

operational
NORAD ID: 64335 Int'l Des: 2025-124 Owner: SPXS Country: US Constellation: starlink
LEOCIRCULAR

Über Starlink 33855

Beschreibung wird geladen...

Live-Position

3D-Globus wird geladen...

Nächste Überflüge

Höhenverlauf

Altitude vs Time

uPlot chart will show altitude changes over time

Zweizeiliger Elementsatz

1 64335U 25124U 25306.19472613 .00023783 00000-0 87143-3 0 9993
2 64335 42.9952 121.5632 0001605 258.0838 101.9834 15.27562974 22288
Epoch: 2. Nov. 2025 • Age: 44 hours

Aktueller Status

Höhe 495.1 km
Geschwindigkeit 7.62 km/s
Subsatellitenpunkt -43.08°S, 29.39°W
Startdatum 10. Juni 2025
Alter 0.3 years
Typ internet

Technische Details

Klassifizierung Payload
Masse 575.00 kg
Trockenmasse 530.00 kg
Gesamtmasse 575.00 kg
Länge 0.30 m
Durchmesser 4.10 m
Spannweite 29.00 m
Form Box + pan
Hersteller SPXS
Bus-Typ Starlink V2MO
Phasenstatus In Orbit
Besitzer/Staat SPXS/US

Große Konstellationen

Loading constellations...